Change the Weather History Date:

Monday, January 13, 2014

  Actual Average Record
Temperature  
Mean Temperature 84 °F -  
Max Temperature 92 °F 89 °F 94 °F (2013)
Min Temperature 77 °F 73 °F 62 °F (2008)
Cooling Degree Days 20    
Growing Degree Days 34 (Base 50)    
Moisture  
Dew Point 64 °F    
Average Humidity 47    
Maximum Humidity 65    
Minimum Humidity 31    
Precipitation  
Precipitation 0.00 in - - ()
Sea Level Pressure  
Sea Level Pressure 29.84 in    
Wind  
Wind Speed 15 mph ()    
Max Wind Speed 21 mph    
Max Gust Speed 29 mph    
Visibility 9.4 miles    
Events      
Averages and records for this station are not official NWS values.
T = Trace of Precipitation, MM = Missing Value Source: Averaged Metar Reports

Daily Weather History Graph

Daily Weather History Graph

Search for Another Location

Airport or City:

Trip Planner

Search our weather history database for the weather conditions in past years. The results will help you decide how hot, cold, wet, or windy it might be!

Date:

Astronomy

Jan. 13, 2014 Rise Set
Actual Time 6:04 AM CST 5:37 PM CST
Civil Twilight 5:41 AM CST 6:00 PM CST
Nautical Twilight 5:15 AM CST 6:26 PM CST
Astronomical Twilight 4:49 AM CST 6:52 PM CST
Moon 3:49 PM CST (1/13) 3:55 AM CST (1/13)
Length of Visible Light 12h 18m
Length of Day
11h 33m
Waxing Gibbous, 95% of the Moon is Illuminated
Jan 13
Waxing Gibbous
Jan 15
Full
Jan 23
Last Quarter
Jan 30
New
Feb 6
First Quarter

Hourly Weather History & Observations

Time (CST) Temp. Heat Index Dew Point Humidity Pressure Visibility Wind Dir Wind Speed Gust Speed Precip Events Conditions
6:00 AM 78 °F - 65 °F 55% 29.87 in 12 mi ENE 18.4 mph - -  
6:00 AM 78.8 °F - 64.4 °F 61% 29.84 in - ENE 18.4 mph - N/A   Clear
7:00 AM 78.8 °F - 66.2 °F 65% 29.85 in - East 19.6 mph - N/A   Clear
8:00 AM 82.4 °F 84.6 °F 66.2 °F 58% 29.88 in - ENE 16.1 mph - N/A   Clear
9:00 AM 85 °F - 64 °F 40%  in 12 mi ENE 20.7 mph - -  
9:00 AM 86.0 °F 87.3 °F 64.4 °F 48% 29.89 in - ENE 20.7 mph - N/A   Clear
10:00 AM 87.8 °F 89.4 °F 64.4 °F 46% 29.88 in - ENE 16.1 mph - N/A   Clear
11:00 AM 89.6 °F 91.1 °F 64.4 °F 43% 29.87 in - ENE 16.1 mph - N/A   Clear
12:00 PM 90 °F - 63 °F 31% 29.88 in 12 mi ENE 13.8 mph - -  
12:00 PM 91.4 °F 92.1 °F 62.6 °F 38% 29.85 in - ENE 13.8 mph - N/A   Clear
1:00 PM 91.4 °F 91.4 °F 60.8 °F 36% 29.82 in 6.2 mi ENE 17.3 mph 28.8 mph N/A   Partly Cloudy
2:00 PM 91.4 °F 92.1 °F 62.6 °F 38% 29.79 in 6.2 mi ENE 18.4 mph - N/A   Partly Cloudy
3:00 PM 91 °F - 64 °F 31% 29.81 in 12 mi East 16.1 mph - -  
3:00 PM 91.4 °F 93.2 °F 64.4 °F 41% 29.78 in 6.2 mi East 16.1 mph - N/A   Partly Cloudy
4:00 PM 89.6 °F 91.1 °F 64.4 °F 43% 29.78 in 6.2 mi ENE 17.3 mph - N/A   Partly Cloudy
5:00 PM 87.8 °F 89.4 °F 64.4 °F 46% 29.80 in - East 15.0 mph - N/A   Clear
6:00 PM 82 °F - 65 °F 47% 29.82 in 12 mi East 13.8 mph - -  
6:00 PM 82.4 °F 83.9 °F 64.4 °F 54% 29.81 in - East 11.5 mph - N/A   Clear
7:00 PM 82.4 °F 83.9 °F 64.4 °F 54% 29.82 in - East 11.5 mph - N/A   Clear
8:00 PM 80.6 °F 82.3 °F 64.4 °F 58% 29.85 in - East 13.8 mph - N/A   Clear